| time (UTC) | temp C | wind direction | speed KPH | gust KPH | rain 1hr cm | rain 24hr cm | rain mn cm | humidity % | barometer mb |
| 20260906093128 | 21 | 52 | 1.6 | 3.2 | 0.00 | 0.00 | 0.00 | 91 | 1013.4 |
| 20260906092632 | 21 | 52 | 1.6 | 3.2 | 0.00 | 0.00 | 0.00 | 91 | 1013.3 |
| 20260906092126 | 21 | 53 | 0.0 | 3.2 | 0.00 | 0.00 | 0.00 | 91 | 1013.3 |
| 20260906091613 | 21 | 46 | 0.0 | 3.2 | 0.00 | 0.00 | 0.00 | 90 | 1013.3 |
| 20260906091113 | 21 | 46 | 1.6 | 3.2 | 0.00 | 0.00 | 0.00 | 90 | 1013.3 |
| 20260906090613 | 21 | 50 | 1.6 | 4.8 | 0.00 | 0.00 | 0.00 | 90 | 1013.3 |
| 20260906090112 | 21 | 59 | 1.6 | 4.8 | 0.00 | 0.00 | 0.00 | 90 | 1013.3 |
| 20260906090057 | 21 | 61 | 1.6 | 4.8 | 0.00 | 0.00 | 0.00 | 90 | 1013.2 |
| 20260906085114 | 21 | 49 | 1.6 | 4.8 | 0.00 | 0.00 | 0.00 | 90 | 1013.2 |
| 20260906084613 | 21 | 47 | 0.0 | 4.8 | 0.00 | 0.00 | 0.00 | 90 | 1013.2 |
| 20260906084112 | 21 | 40 | 0.0 | 0.0 | 0.00 | 0.00 | 0.00 | 90 | 1013.3 |
| 20260906083613 | 21 | 63 | 0.0 | 1.6 | 0.00 | 0.00 | 0.00 | 89 | 1013.3 |
| 20260906083110 | 21 | 58 | 0.0 | 6.4 | 0.00 | 0.00 | 0.00 | 89 | 1013.3 |
| 20260906082557 | 22 | 47 | 1.6 | 6.4 | 0.00 | 0.00 | 0.00 | 89 | 1013.4 |
| 20260906082058 | 22 | 56 | 3.2 | 8.0 | 0.00 | 0.00 | 0.00 | 89 | 1013.4 |
| 20260906081551 | 22 | 78 | 3.2 | 11.3 | 0.00 | 0.00 | 0.00 | 89 | 1013.4 |
| 20260906081044 | 22 | 55 | 3.2 | 11.3 | 0.00 | 0.00 | 0.00 | 88 | 1013.5 |
| 20260906080539 | 22 | 60 | 3.2 | 8.0 | 0.00 | 0.00 | 0.00 | 88 | 1013.5 |
| 20260906080028 | 22 | 49 | 1.6 | 6.4 | 0.00 | 0.00 | 0.00 | 88 | 1013.5 |
| 20260906075527 | 22 | 26 | 3.2 | 8.0 | 0.00 | 0.00 | 0.00 | 88 | 1013.5 |
| 20260906075508 | 22 | 26 | 3.2 | 8.0 | 0.00 | 0.00 | 0.00 | 88 | 1013.5 |
| 20260906074514 | 22 | 61 | 3.2 | 6.4 | 0.00 | 0.00 | 0.00 | 88 | 1013.5 |
| 20260906074008 | 22 | 28 | 1.6 | 6.4 | 0.00 | 0.00 | 0.00 | 87 | 1013.5 |
| 20260906073504 | 22 | 58 | 1.6 | 11.3 | 0.00 | 0.00 | 0.00 | 87 | 1013.5 |
| 20260906072957 | 22 | 17 | 3.2 | 11.3 | 0.00 | 0.00 | 0.00 | 87 | 1013.4 |
| 20260906072447 | 22 | 64 | 3.2 | 8.0 | 0.00 | 0.00 | 0.00 | 87 | 1013.4 |
| 20260906072203 | 22 | 29 | 3.2 | 11.3 | 0.00 | 0.00 | 0.00 | 88 | 1013.4 |
| 20260906071439 | 22 | 72 | 3.2 | 11.3 | 0.00 | 0.00 | 0.00 | 88 | 1013.5 |
| 20260906071153 | 22 | 51 | 3.2 | 8.0 | 0.00 | 0.00 | 0.00 | 88 | 1013.5 |
| 20260906070426 | 22 | 50 | 3.2 | 12.9 | 0.00 | 0.00 | 0.00 | 88 | 1013.5 |
| 20260906065915 | 22 | 61 | 3.2 | 12.9 | 0.00 | 0.00 | 0.00 | 88 | 1013.5 |
| 20260906065414 | 22 | 24 | 4.8 | 11.3 | 0.00 | 0.00 | 0.00 | 88 | 1013.5 |
| 20260906064909 | 22 | 41 | 4.8 | 12.9 | 0.00 | 0.00 | 0.00 | 88 | 1013.5 |
| 20260906064403 | 22 | 69 | 4.8 | 14.5 | 0.00 | 0.00 | 0.00 | 88 | 1013.5 |
| 20260906063857 | 22 | 77 | 6.4 | 17.7 | 0.00 | 0.00 | 0.00 | 88 | 1013.5 |
| 20260906063351 | 22 | 63 | 6.4 | 17.7 | 0.00 | 0.00 | 0.00 | 88 | 1013.5 |
| 20260906062846 | 22 | 28 | 6.4 | 14.5 | 0.00 | 0.00 | 0.00 | 88 | 1013.5 |
| 20260906062336 | 22 | 81 | 6.4 | 14.5 | 0.00 | 0.00 | 0.00 | 88 | 1013.5 |
| 20260906061836 | 22 | 58 | 6.4 | 14.5 | 0.00 | 0.00 | 0.00 | 88 | 1013.5 |
| 20260906061336 | 22 | 59 | 6.4 | 12.9 | 0.00 | 0.00 | 0.00 | 88 | 1013.4 |
| 20260906060836 | 22 | 61 | 4.8 | 12.9 | 0.00 | 0.00 | 0.00 | 88 | 1013.4 |
| 20260906060336 | 22 | 51 | 4.8 | 12.9 | 0.00 | 0.00 | 0.00 | 88 | 1013.4 |
| 20260906055836 | 22 | 45 | 4.8 | 12.9 | 0.00 | 0.00 | 0.00 | 87 | 1013.4 |
| 20260906055337 | 22 | 38 | 4.8 | 8.0 | 0.00 | 0.00 | 0.00 | 87 | 1013.4 |
| 20260906055100 | 22 | 5 | 4.8 | 11.3 | 0.00 | 0.00 | 0.00 | 87 | 1013.4 |
| 20260906054334 | 22 | 55 | 4.8 | 16.1 | 0.00 | 0.00 | 0.00 | 87 | 1013.3 |
| 20260906053835 | 22 | 18 | 4.8 | 16.1 | 0.00 | 0.00 | 0.00 | 87 | 1013.3 |
| 20260906053335 | 22 | 32 | 4.8 | 12.9 | 0.00 | 0.00 | 0.00 | 87 | 1013.3 |
| 20260906052835 | 22 | 57 | 4.8 | 12.9 | 0.00 | 0.00 | 0.00 | 87 | 1013.1 |
| 20260906052334 | 22 | 32 | 4.8 | 9.7 | 0.00 | 0.00 | 0.00 | 87 | 1013.1 |
| 20260906051837 | 22 | 32 | 6.4 | 12.9 | 0.00 | 0.00 | 0.00 | 87 | 1013.1 |
| 20260906051337 | 22 | 17 | 4.8 | 12.9 | 0.00 | 0.00 | 0.00 | 87 | 1012.9 |
| 20260906051105 | 22 | 15 | 6.4 | 12.9 | 0.00 | 0.00 | 0.00 | 87 | 1012.9 |
| 20260906050331 | 22 | 65 | 8.0 | 16.1 | 0.00 | 0.00 | 0.00 | 87 | 1012.9 |
| 20260906050046 | 22 | 61 | 8.0 | 16.1 | 0.00 | 0.00 | 0.00 | 87 | 1012.7 |
| 20260906045317 | 22 | 78 | 8.0 | 17.7 | 0.00 | 0.00 | 0.00 | 87 | 1012.7 |
| 20260906044808 | 22 | 81 | 8.0 | 17.7 | 0.00 | 0.00 | 0.00 | 87 | 1012.7 |
| 20260906044524 | 22 | 59 | 8.0 | 16.1 | 0.00 | 0.00 | 0.00 | 87 | 1012.6 |
| 20260906044023 | 22 | 85 | 6.4 | 17.7 | 0.00 | 0.00 | 0.00 | 87 | 1012.6 |
| 20260906043252 | 22 | 61 | 6.4 | 17.7 | 0.00 | 0.00 | 0.00 | 87 | 1012.6 |
| 20260906043015 | 22 | 47 | 8.0 | 17.7 | 0.00 | 0.00 | 0.00 | 87 | 1012.5 |
| 20260906042240 | 22 | 15 | 8.0 | 22.5 | 0.00 | 0.00 | 0.00 | 87 | 1012.5 |
| 20260906041732 | 22 | 78 | 8.0 | 22.5 | 0.00 | 0.00 | 0.00 | 87 | 1012.5 |
| 20260906041224 | 22 | 65 | 8.0 | 16.1 | 0.00 | 0.00 | 0.00 | 87 | 1012.5 |
| 20260906040714 | 22 | 59 | 9.7 | 24.1 | 0.00 | 0.00 | 0.00 | 87 | 1012.5 |
| 20260906040206 | 22 | 37 | 9.7 | 24.1 | 0.00 | 0.00 | 0.00 | 87 | 1012.5 |
| 20260906035706 | 22 | 52 | 9.7 | 19.3 | 0.00 | 0.00 | 0.00 | 87 | 1012.4 |
| 20260906035205 | 22 | 52 | 9.7 | 19.3 | 0.00 | 0.00 | 0.00 | 87 | 1012.4 |
| 20260906034705 | 22 | 72 | 9.7 | 19.3 | 0.00 | 0.00 | 0.00 | 87 | 1012.4 |
| 20260906034206 | 22 | 46 | 8.0 | 19.3 | 0.00 | 0.00 | 0.00 | 87 | 1012.4 |
| 20260906033706 | 22 | 83 | 9.7 | 27.4 | 0.00 | 0.00 | 0.00 | 87 | 1012.4 |
| 20260906033208 | 22 | 107 | 9.7 | 27.4 | 0.00 | 0.00 | 0.00 | 87 | 1012.4 |
| 20260906032709 | 22 | 49 | 8.0 | 17.7 | 0.00 | 0.00 | 0.00 | 86 | 1012.4 |
| 20260906032207 | 22 | 60 | 11.3 | 20.9 | 0.00 | 0.00 | 0.00 | 86 | 1012.4 |
| 20260906031929 | 22 | 45 | 12.9 | 24.1 | 0.00 | 0.00 | 0.00 | 86 | 1012.4 |
| 20260906031159 | 22 | 46 | 9.7 | 24.1 | 0.00 | 0.00 | 0.00 | 87 | 1012.3 |
| 20260906030652 | 22 | 14 | 8.0 | 22.5 | 0.00 | 0.00 | 0.00 | 87 | 1012.3 |
| 20260906030643 | 22 | 36 | 9.7 | 22.5 | 0.00 | 0.00 | 0.00 | 87 | 1012.3 |
| 20260906025635 | 22 | 77 | 9.7 | 22.5 | 0.00 | 0.00 | 0.00 | 87 | 1012.3 |
| 20260906025134 | 22 | 85 | 9.7 | 22.5 | 0.00 | 0.00 | 0.00 | 87 | 1012.3 |
| 20260906024628 | 22 | 86 | 8.0 | 22.5 | 0.00 | 0.00 | 0.00 | 87 | 1012.3 |
| 20260906024122 | 22 | 47 | 6.4 | 17.7 | 0.00 | 0.00 | 0.00 | 86 | 1012.3 |
| 20260906023616 | 22 | 35 | 6.4 | 19.3 | 0.00 | 0.00 | 0.00 | 86 | 1012.3 |
| 20260906023111 | 22 | 52 | 8.0 | 19.3 | 0.00 | 0.00 | 0.00 | 86 | 1012.3 |
| 20260906022605 | 22 | 105 | 8.0 | 19.3 | 0.00 | 0.00 | 0.00 | 86 | 1012.4 |
| 20260906022055 | 22 | 355 | 9.7 | 19.3 | 0.00 | 0.00 | 0.00 | 86 | 1012.4 |
| 20260906021554 | 22 | 24 | 9.7 | 19.3 | 0.00 | 0.00 | 0.00 | 86 | 1012.4 |
| 20260906021048 | 22 | 71 | 8.0 | 17.7 | 0.00 | 0.00 | 0.00 | 86 | 1012.4 |
| 20260906020541 | 22 | 46 | 9.7 | 17.7 | 0.00 | 0.00 | 0.00 | 86 | 1012.4 |
| 20260906020036 | 22 | 23 | 8.0 | 19.3 | 0.00 | 0.00 | 0.00 | 86 | 1012.4 |
| 20260906015525 | 22 | 35 | 8.0 | 22.5 | 0.00 | 0.00 | 0.00 | 86 | 1012.4 |
| 20260906015023 | 22 | 36 | 8.0 | 22.5 | 0.00 | 0.00 | 0.00 | 86 | 1012.4 |
| 20260906014517 | 22 | 28 | 8.0 | 20.9 | 0.00 | 0.00 | 0.00 | 86 | 1012.4 |
| 20260906014009 | 22 | 64 | 9.7 | 22.5 | 0.00 | 0.00 | 0.00 | 86 | 1012.4 |
| 20260906013504 | 22 | 66 | 9.7 | 27.4 | 0.00 | 0.00 | 0.00 | 86 | 1012.4 |
| 20260906012958 | 22 | 45 | 11.3 | 27.4 | 0.00 | 0.00 | 0.00 | 86 | 1012.4 |
| 20260906012452 | 22 | 71 | 11.3 | 25.7 | 0.00 | 0.00 | 0.00 | 86 | 1012.4 |
| 20260906012203 | 22 | 5 | 11.3 | 25.7 | 0.00 | 0.00 | 0.00 | 85 | 1012.4 |
| 20260906011658 | 22 | 50 | 9.7 | 25.7 | 0.00 | 0.00 | 0.00 | 85 | 1012.3 |
| 20260906010934 | 22 | 80 | 6.4 | 19.3 | 0.00 | 0.00 | 0.00 | 84 | 1012.3 |
| 20260906010427 | 22 | 59 | 8.0 | 19.3 | 0.00 | 0.00 | 0.00 | 84 | 1012.3 |
| 20260906005923 | 22 | 355 | 8.0 | 20.9 | 0.00 | 0.00 | 0.00 | 83 | 1011.8 |
| 20260906005411 | 22 | 89 | 9.7 | 24.1 | 0.00 | 0.00 | 0.00 | 83 | 1011.8 |
| 20260906004909 | 22 | 30 | 9.7 | 24.1 | 0.00 | 0.00 | 0.00 | 83 | 1011.8 |
| 20260906004404 | 22 | 52 | 11.3 | 25.7 | 0.00 | 0.00 | 0.00 | 83 | 1011.7 |
| 20260906003858 | 22 | 84 | 11.3 | 25.7 | 0.00 | 0.00 | 0.00 | 82 | 1011.7 |
| 20260906003351 | 23 | 33 | 11.3 | 25.7 | 0.00 | 0.00 | 0.00 | 82 | 1011.7 |
| 20260906002845 | 23 | 57 | 11.3 | 25.7 | 0.00 | 0.00 | 0.00 | 82 | 1011.7 |
| 20260906002341 | 23 | 26 | 12.9 | 25.7 | 0.00 | 0.00 | 0.00 | 82 | 1011.7 |
| 20260906002049 | 23 | 64 | 11.3 | 22.5 | 0.00 | 0.00 | 0.00 | 82 | 1011.7 |
| 20260906001328 | 23 | 24 | 9.7 | 20.9 | 0.00 | 0.00 | 0.00 | 83 | 1011.8 |
| 20260906000816 | 23 | 342 | 8.0 | 20.9 | 0.00 | 0.00 | 0.00 | 82 | 1011.8 |
| 20260906000311 | 23 | 52 | 8.0 | 16.1 | 0.00 | 0.00 | 0.00 | 83 | 1011.8 |
| 20260906000031 | 23 | 37 | 9.7 | 20.9 | 0.00 | 0.00 | 0.00 | 83 | 1011.5 |
| 20260905235311 | 24 | 73 | 9.7 | 20.9 | 0.00 | 0.00 | 0.00 | 82 | 1011.5 |
| 20260905234811 | 24 | 46 | 8.0 | 17.7 | 0.00 | 0.00 | 0.00 | 82 | 1011.5 |
| 20260905234311 | 24 | 25 | 8.0 | 20.9 | 0.00 | 0.00 | 0.00 | 81 | 1011.4 |
| 20260905233811 | 24 | 100 | 8.0 | 20.9 | 0.00 | 0.00 | 0.00 | 80 | 1011.4 |
| 20260905233310 | 25 | 0 | 6.4 | 17.7 | 0.00 | 0.00 | 0.00 | 80 | 1011.4 |
| 20260905232810 | 25 | 82 | 8.0 | 20.9 | 0.00 | 0.00 | 0.00 | 80 | 1011.3 |
| 20260905232310 | 25 | 82 | 9.7 | 20.9 | 0.00 | 0.00 | 0.00 | 80 | 1011.3 |
| 20260905231806 | 25 | 5 | 11.3 | 22.5 | 0.00 | 0.00 | 0.00 | 79 | 1011.3 |
| 20260905231252 | 25 | 46 | 9.7 | 22.5 | 0.00 | 0.00 | 0.00 | 79 | 1011.0 |
| 20260905230742 | 25 | 49 | 9.7 | 20.9 | 0.00 | 0.00 | 0.00 | 78 | 1011.0 |
| 20260905230457 | 25 | 74 | 9.7 | 20.9 | 0.00 | 0.00 | 0.00 | 78 | 1011.0 |
| 20260905225952 | 26 | 46 | 9.7 | 20.9 | 0.00 | 0.00 | 0.00 | 78 | 1010.8 |
| 20260905225219 | 26 | 53 | 9.7 | 17.7 | 0.00 | 0.00 | 0.00 | 77 | 1010.8 |
| 20260905224716 | 26 | 94 | 9.7 | 17.7 | 0.00 | 0.00 | 0.00 | 77 | 1010.8 |
| 20260905224426 | 26 | 0 | 8.0 | 16.1 | 0.00 | 0.00 | 0.00 | 77 | 1010.9 |
| 20260905223924 | 26 | 37 | 6.4 | 19.3 | 0.00 | 0.00 | 0.00 | 78 | 1010.9 |
| 20260905223158 | 25 | 43 | 6.4 | 19.3 | 0.00 | 0.00 | 0.00 | 78 | 1010.9 |
| 20260905222652 | 25 | 63 | 8.0 | 16.1 | 0.00 | 0.00 | 0.00 | 78 | 1011.1 |
| 20260905222634 | 26 | 17 | 9.7 | 22.5 | 0.00 | 0.00 | 0.00 | 78 | 1011.1 |
| 20260905221636 | 26 | 48 | 9.7 | 22.5 | 0.00 | 0.00 | 0.00 | 77 | 1011.1 |
| 20260905221134 | 26 | 53 | 8.0 | 17.7 | 0.00 | 0.00 | 0.00 | 76 | 1011.0 |
| 20260905220629 | 26 | 128 | 6.4 | 17.7 | 0.00 | 0.00 | 0.00 | 76 | 1011.0 |
| 20260905220124 | 26 | 338 | 4.8 | 14.5 | 0.00 | 0.00 | 0.00 | 77 | 1011.0 |
| 20260905215617 | 26 | 47 | 6.4 | 17.7 | 0.00 | 0.00 | 0.00 | 77 | 1010.9 |
| 20260905215108 | 26 | 5 | 9.7 | 22.5 | 0.00 | 0.00 | 0.00 | 78 | 1010.9 |
| 20260905214830 | 26 | 35 | 9.7 | 22.5 | 0.00 | 0.00 | 0.00 | 77 | 1010.9 |
| 20260905214059 | 26 | 30 | 8.0 | 20.9 | 0.00 | 0.00 | 0.00 | 78 | 1010.9 |
| 20260905213552 | 26 | 41 | 9.7 | 19.3 | 0.00 | 0.00 | 0.00 | 78 | 1010.9 |
| 20260905213313 | 26 | 34 | 8.0 | 20.9 | 0.00 | 0.00 | 0.00 | 78 | 1010.9 |
| 20260905212540 | 26 | 49 | 9.7 | 20.9 | 0.00 | 0.00 | 0.00 | 77 | 1010.9 |
| 20260905212034 | 26 | 57 | 9.7 | 20.9 | 0.00 | 0.00 | 0.00 | 77 | 1010.9 |
| 20260905211524 | 26 | 348 | 9.7 | 19.3 | 0.00 | 0.00 | 0.00 | 77 | 1010.9 |
| 20260905211022 | 26 | 72 | 8.0 | 19.3 | 0.00 | 0.00 | 0.00 | 76 | 1010.9 |
| 20260905210516 | 27 | 23 | 6.4 | 17.7 | 0.00 | 0.00 | 0.00 | 76 | 1010.9 |
| 20260905210233 | 27 | 335 | 6.4 | 17.7 | 0.00 | 0.00 | 0.00 | 76 | 1010.9 |
| 20260905205505 | 27 | 26 | 9.7 | 20.9 | 0.00 | 0.00 | 0.00 | 75 | 1010.9 |
| 20260905204954 | 27 | 5 | 9.7 | 20.9 | 0.00 | 0.00 | 0.00 | 75 | 1010.9 |
| 20260905204453 | 27 | 71 | 9.7 | 19.3 | 0.00 | 0.00 | 0.00 | 75 | 1010.9 |
| 20260905203947 | 27 | 49 | 9.7 | 17.7 | 0.00 | 0.00 | 0.00 | 75 | 1010.9 |
| 20260905203704 | 27 | 19 | 9.7 | 19.3 | 0.00 | 0.00 | 0.00 | 75 | 1010.9 |
| 20260905202935 | 27 | 342 | 9.7 | 22.5 | 0.00 | 0.00 | 0.00 | 74 | 1010.9 |
| 20260905202907 | 27 | 72 | 8.0 | 22.5 | 0.00 | 0.00 | 0.00 | 74 | 1010.9 |
| 20260905201923 | 28 | 22 | 8.0 | 17.7 | 0.00 | 0.00 | 0.00 | 74 | 1010.9 |
| 20260905201632 | 28 | 355 | 8.0 | 17.7 | 0.00 | 0.00 | 0.00 | 74 | 1010.9 |
| 20260905200911 | 27 | 20 | 8.0 | 19.3 | 0.00 | 0.00 | 0.00 | 75 | 1010.9 |
| 20260905200405 | 27 | 5 | 9.7 | 19.3 | 0.00 | 0.00 | 0.00 | 74 | 1010.9 |
| 20260905195857 | 27 | 9 | 8.0 | 19.3 | 0.00 | 0.00 | 0.00 | 73 | 1010.8 |
| 20260905195352 | 28 | 14 | 9.7 | 22.5 | 0.00 | 0.00 | 0.00 | 74 | 1010.8 |
| 20260905194842 | 28 | 67 | 11.3 | 22.5 | 0.00 | 0.00 | 0.00 | 74 | 1010.8 |
| 20260905194338 | 28 | 41 | 11.3 | 22.5 | 0.00 | 0.00 | 0.00 | 73 | 1010.9 |
| 20260905193825 | 27 | 340 | 11.3 | 22.5 | 0.00 | 0.00 | 0.00 | 74 | 1010.9 |
| 20260905193315 | 27 | 27 | 8.0 | 22.5 | 0.00 | 0.00 | 0.00 | 74 | 1010.9 |
| 20260905192815 | 27 | 67 | 6.4 | 16.1 | 0.00 | 0.00 | 0.00 | 75 | 1011.0 |
| 20260905192315 | 27 | 47 | 8.0 | 20.9 | 0.00 | 0.00 | 0.00 | 74 | 1011.0 |
| 20260905191815 | 27 | 38 | 8.0 | 20.9 | 0.00 | 0.00 | 0.00 | 74 | 1011.0 |
| 20260905191546 | 27 | 88 | 8.0 | 20.9 | 0.00 | 0.00 | 0.00 | 75 | 1011.1 |
| 20260905191043 | 27 | 51 | 9.7 | 17.7 | 0.00 | 0.00 | 0.00 | 74 | 1011.1 |
| 20260905190536 | 28 | 78 | 8.0 | 16.1 | 0.00 | 0.00 | 0.00 | 74 | 1011.1 |
| 20260905185816 | 28 | 57 | 8.0 | 16.1 | 0.00 | 0.00 | 0.00 | 74 | 1011.1 |
| 20260905185317 | 28 | 333 | 8.0 | 19.3 | 0.00 | 0.00 | 0.00 | 73 | 1011.1 |
| 20260905184810 | 28 | 49 | 8.0 | 19.3 | 0.00 | 0.00 | 0.00 | 72 | 1011.1 |
| 20260905184525 | 28 | 49 | 8.0 | 14.5 | 0.00 | 0.00 | 0.00 | 73 | 1011.1 |
| 20260905183754 | 28 | 65 | 9.7 | 17.7 | 0.00 | 0.00 | 0.00 | 72 | 1011.1 |
| 20260905183243 | 28 | 11 | 8.0 | 20.9 | 0.00 | 0.00 | 0.00 | 72 | 1011.1 |
| 20260905182743 | 28 | 56 | 8.0 | 20.9 | 0.00 | 0.00 | 0.00 | 72 | 1011.0 |
| 20260905182235 | 28 | 17 | 8.0 | 19.3 | 0.00 | 0.00 | 0.00 | 73 | 1011.0 |
| 20260905181730 | 28 | 56 | 8.0 | 19.3 | 0.00 | 0.00 | 0.00 | 72 | 1011.0 |
| 20260905181225 | 28 | 5 | 8.0 | 19.3 | 0.00 | 0.00 | 0.00 | 72 | 1010.9 |
| 20260905180718 | 28 | 44 | 9.7 | 24.1 | 0.00 | 0.00 | 0.00 | 71 | 1010.9 |
| 20260905180212 | 29 | 46 | 9.7 | 24.1 | 0.00 | 0.00 | 0.00 | 71 | 1010.9 |
| 20260905175934 | 29 | 82 | 9.7 | 19.3 | 0.00 | 0.00 | 0.00 | 72 | 1010.9 |
| 20260905175425 | 29 | 44 | 8.0 | 20.9 | 0.00 | 0.00 | 0.00 | 71 | 1010.9 |
| 20260905174654 | 29 | 86 | 6.4 | 20.9 | 0.00 | 0.00 | 0.00 | 71 | 1010.9 |
| 20260905174411 | 29 | 48 | 8.0 | 20.9 | 0.00 | 0.00 | 0.00 | 72 | 1010.9 |
| 20260905173641 | 29 | 49 | 9.7 | 20.9 | 0.00 | 0.00 | 0.00 | 71 | 1010.9 |
| 20260905173131 | 29 | 346 | 9.7 | 24.1 | 0.00 | 0.00 | 0.00 | 72 | 1010.9 |
| 20260905172853 | 29 | 85 | 8.0 | 24.1 | 0.00 | 0.00 | 0.00 | 72 | 1011.0 |
| 20260905172124 | 29 | 63 | 9.7 | 25.7 | 0.00 | 0.00 | 0.00 | 71 | 1011.0 |
| 20260905171617 | 29 | 355 | 9.7 | 25.7 | 0.00 | 0.00 | 0.00 | 71 | 1011.0 |
| 20260905171328 | 29 | 73 | 8.0 | 19.3 | 0.00 | 0.00 | 0.00 | 73 | 1011.1 |
| 20260905171056 | 29 | 5 | 8.0 | 14.5 | 0.00 | 0.00 | 0.00 | 71 | 1011.1 |
| 20260905170059 | 29 | 16 | 8.0 | 16.1 | 0.00 | 0.00 | 0.00 | 72 | 1011.1 |
| 20260905165549 | 28 | 24 | 8.0 | 17.7 | 0.00 | 0.00 | 0.00 | 73 | 1011.2 |
| 20260905165047 | 28 | 64 | 8.0 | 25.7 | 0.00 | 0.00 | 0.00 | 73 | 1011.2 |
| 20260905164759 | 28 | 32 | 9.7 | 25.7 | 0.00 | 0.00 | 0.00 | 72 | 1011.2 |
| 20260905164304 | 28 | 74 | 8.0 | 19.3 | 0.00 | 0.00 | 0.00 | 73 | 1011.3 |
| 20260905163541 | 28 | 54 | 8.0 | 17.7 | 0.00 | 0.00 | 0.00 | 73 | 1011.3 |
| 20260905163044 | 28 | 42 | 8.0 | 17.7 | 0.00 | 0.00 | 0.00 | 73 | 1011.3 |
| 20260905162540 | 28 | 87 | 8.0 | 17.7 | 0.00 | 0.00 | 0.00 | 72 | 1011.3 |
| 20260905162306 | 28 | 31 | 8.0 | 16.1 | 0.00 | 0.00 | 0.00 | 73 | 1011.3 |
| 20260905161541 | 28 | 355 | 8.0 | 16.1 | 0.00 | 0.00 | 0.00 | 75 | 1011.3 |
| 20260905161041 | 28 | 36 | 9.7 | 20.9 | 0.00 | 0.00 | 0.00 | 75 | 1011.2 |
| 20260905160542 | 28 | 17 | 9.7 | 22.5 | 0.00 | 0.00 | 0.00 | 75 | 1011.2 |
| 20260905160304 | 28 | 58 | 8.0 | 22.5 | 0.00 | 0.00 | 0.00 | 76 | 1011.2 |
| 20260905155542 | 27 | 36 | 8.0 | 19.3 | 0.00 | 0.00 | 0.00 | 76 | 1011.1 |
| 20260905155039 | 27 | 57 | 6.4 | 17.7 | 0.00 | 0.00 | 0.00 | 77 | 1011.1 |
| 20260905154539 | 27 | 37 | 8.0 | 17.7 | 0.00 | 0.00 | 0.00 | 79 | 1011.1 |
| 20260905154041 | 27 | 66 | 6.4 | 17.7 | 0.00 | 0.00 | 0.00 | 79 | 1010.9 |
| 20260905153541 | 27 | 36 | 6.4 | 12.9 | 0.00 | 0.00 | 0.00 | 80 | 1010.9 |
| 20260905153043 | 27 | 55 | 8.0 | 19.3 | 0.00 | 0.00 | 0.00 | 81 | 1010.9 |
| 20260905152537 | 27 | 28 | 9.7 | 19.3 | 0.00 | 0.00 | 0.00 | 81 | 1010.9 |
| 20260905152027 | 27 | 46 | 9.7 | 17.7 | 0.00 | 0.00 | 0.00 | 81 | 1010.9 |
| 20260905151744 | 27 | 40 | 9.7 | 19.3 | 0.00 | 0.00 | 0.00 | 81 | 1010.9 |
| 20260905151028 | 27 | 95 | 9.7 | 19.3 | 0.00 | 0.00 | 0.00 | 81 | 1010.7 |
| 20260905150527 | 27 | 70 | 9.7 | 19.3 | 0.00 | 0.00 | 0.00 | 80 | 1010.7 |
| 20260905150027 | 27 | 64 | 9.7 | 16.1 | 0.00 | 0.00 | 0.00 | 80 | 1010.7 |
| 20260905145526 | 28 | 21 | 6.4 | 16.1 | 0.00 | 0.00 | 0.00 | 80 | 1010.8 |
| 20260905145029 | 28 | 0 | 4.8 | 8.0 | 0.00 | 0.00 | 0.00 | 81 | 1010.8 |
| 20260905144528 | 27 | 42 | 6.4 | 12.9 | 0.00 | 0.00 | 0.00 | 83 | 1010.8 |
| 20260905144026 | 27 | 33 | 6.4 | 12.9 | 0.00 | 0.00 | 0.00 | 83 | 1010.4 |
| 20260905143524 | 27 | 86 | 4.8 | 11.3 | 0.00 | 0.00 | 0.00 | 83 | 1010.4 |
| 20260905143018 | 27 | 12 | 4.8 | 9.7 | 0.00 | 0.00 | 0.00 | 83 | 1010.4 |
| 20260905142513 | 26 | 47 | 4.8 | 12.9 | 0.00 | 0.00 | 0.00 | 84 | 1010.2 |
| 20260905142008 | 26 | 67 | 6.4 | 14.5 | 0.00 | 0.00 | 0.00 | 84 | 1010.2 |
| 20260905141457 | 26 | 84 | 4.8 | 14.5 | 0.00 | 0.00 | 0.00 | 84 | 1010.2 |
| 20260905140954 | 26 | 44 | 4.8 | 12.9 | 0.00 | 0.00 | 0.00 | 84 | 1010.2 |
| 20260905140444 | 26 | 338 | 4.8 | 12.9 | 0.00 | 0.00 | 0.00 | 84 | 1010.2 |
| 20260905135942 | 26 | 34 | 4.8 | 9.7 | 0.00 | 0.00 | 0.00 | 85 | 1010.5 |
| 20260905135700 | 26 | 41 | 6.4 | 12.9 | 0.00 | 0.00 | 0.00 | 85 | 1010.5 |
| 20260905134926 | 26 | 39 | 6.4 | 12.9 | 0.00 | 0.00 | 0.00 | 85 | 1010.5 |
| 20260905134424 | 26 | 67 | 6.4 | 12.9 | 0.00 | 0.00 | 0.00 | 85 | 1010.8 |
| 20260905133918 | 26 | 52 | 4.8 | 12.9 | 0.00 | 0.00 | 0.00 | 86 | 1010.8 |
| 20260905133412 | 26 | 81 | 4.8 | 12.9 | 0.00 | 0.00 | 0.00 | 86 | 1010.8 |
| 20260905132908 | 26 | 50 | 6.4 | 12.9 | 0.00 | 0.00 | 0.00 | 87 | 1010.3 |
| 20260905132357 | 26 | 56 | 6.4 | 14.5 | 0.00 | 0.00 | 0.00 | 87 | 1010.3 |
| 20260905132128 | 25 | 83 | 6.4 | 14.5 | 0.00 | 0.00 | 0.00 | 87 | 1010.3 |
| 20260905131604 | 25 | 80 | 4.8 | 11.3 | 0.00 | 0.00 | 0.00 | 87 | 1010.2 |
| 20260905130842 | 25 | 15 | 4.8 | 11.3 | 0.00 | 0.00 | 0.00 | 87 | 1010.2 |
| 20260905130601 | 25 | 50 | 4.8 | 11.3 | 0.00 | 0.00 | 0.00 | 88 | 1010.2 |
| 20260905125832 | 25 | 49 | 4.8 | 11.3 | 0.00 | 0.00 | 0.00 | 88 | 1009.9 |
| 20260905125550 | 26 | 34 | 4.8 | 9.7 | 0.00 | 0.00 | 0.00 | 89 | 1009.9 |
| 20260905124815 | 26 | 49 | 3.2 | 9.7 | 0.00 | 0.00 | 0.00 | 90 | 1009.9 |
| 20260905124314 | 26 | 11 | 3.2 | 6.4 | 0.00 | 0.00 | 0.00 | 90 | 1009.7 |
| 20260905123807 | 25 | 46 | 1.6 | 6.4 | 0.00 | 0.00 | 0.00 | 90 | 1009.7 |
| 20260905123300 | 25 | 22 | 1.6 | 6.4 | 0.00 | 0.00 | 0.00 | 90 | 1009.7 |
| 20260905122755 | 25 | 355 | 1.6 | 6.4 | 0.00 | 0.00 | 0.00 | 90 | 1009.4 |
| 20260905122243 | 25 | 355 | 1.6 | 4.8 | 0.00 | 0.00 | 0.00 | 90 | 1009.4 |
| 20260905121742 | 25 | 320 | 1.6 | 4.8 | 0.00 | 0.00 | 0.00 | 90 | 1009.4 |
| 20260905121236 | 25 | 340 | 0.0 | 4.8 | 0.00 | 0.00 | 0.00 | 91 | 1009.3 |
| 20260905120731 | 25 | 319 | 0.0 | 3.2 | 0.00 | 0.00 | 0.00 | 91 | 1009.3 |
| 20260905120225 | 25 | 284 | 0.0 | 3.2 | 0.00 | 0.00 | 0.00 | 91 | 1009.3 |
| 20260905115935 | 25 | 33 | 0.0 | 3.2 | 0.00 | 0.00 | 0.00 | 90 | 1009.2 |
| 20260905115436 | 25 | 38 | 0.0 | 3.2 | 0.00 | 0.00 | 0.00 | 90 | 1009.2 |
| 20260905114703 | 25 | 38 | 0.0 | 3.2 | 0.00 | 0.00 | 0.00 | 90 | 1009.2 |
| 20260905114424 | 25 | 38 | 1.6 | 4.8 | 0.00 | 0.00 | 0.00 | 90 | 1009.2 |
| 20260905113656 | 25 | 38 | 1.6 | 4.8 | 0.00 | 0.00 | 0.00 | 90 | 1009.2 |
| 20260905113148 | 25 | 273 | 0.0 | 3.2 | 0.00 | 0.00 | 0.00 | 90 | 1009.2 |
| 20260905112642 | 25 | 240 | 0.0 | 1.6 | 0.00 | 0.00 | 0.00 | 90 | 1009.1 |
| 20260905112400 | 25 | 240 | 1.6 | 4.8 | 0.00 | 0.00 | 0.00 | 90 | 1009.1 |
| 20260905111636 | 25 | 240 | 3.2 | 6.4 | 0.00 | 0.00 | 0.00 | 90 | 1009.1 |
| 20260905111410 | 25 | 217 | 3.2 | 6.4 | 0.00 | 0.00 | 0.00 | 90 | 1009.0 |
| 20260905110857 | 25 | 249 | 1.6 | 4.8 | 0.00 | 0.00 | 0.00 | 90 | 1009.0 |
| 20260905110135 | 25 | 238 | 1.6 | 4.8 | 0.00 | 0.00 | 0.00 | 90 | 1009.0 |
| 20260905105904 | 25 | 238 | 1.6 | 3.2 | 0.00 | 0.00 | 0.00 | 90 | 1009.1 |
| 20260905105135 | 25 | 238 | 1.6 | 6.4 | 0.00 | 0.00 | 0.00 | 90 | 1009.1 |
| 20260905104858 | 25 | 238 | 1.6 | 6.4 | 0.00 | 0.00 | 0.00 | 90 | 1009.1 |
| 20260905104137 | 25 | 238 | 1.6 | 4.8 | 0.00 | 0.00 | 0.00 | 90 | 1009.2 |
| 20260905104110 | 25 | 238 | 1.6 | 4.8 | 0.00 | 0.00 | 0.00 | 90 | 1009.2 |
| 20260905103119 | 25 | 240 | 1.6 | 3.2 | 0.00 | 0.00 | 0.00 | 90 | 1009.2 |
| 20260905102609 | 25 | 240 | 0.0 | 1.6 | 0.00 | 0.00 | 0.00 | 90 | 1009.2 |
| 20260905102105 | 25 | 240 | 0.0 | 0.0 | 0.00 | 0.00 | 0.00 | 90 | 1009.2 |
| 20260905101558 | 25 | 240 | 0.0 | 0.0 | 0.00 | 0.00 | 0.00 | 90 | 1009.2 |
| 20260905101052 | 25 | 240 | 0.0 | 0.0 | 0.00 | 0.00 | 0.00 | 90 | 1009.2 |
| 20260905100542 | 25 | 240 | 0.0 | 0.0 | 0.00 | 0.00 | 0.00 | 90 | 1009.2 |
| 20260905100039 | 25 | 240 | 0.0 | 1.6 | 0.00 | 0.00 | 0.00 | 90 | 1009.2 |
| 20260905095534 | 25 | 240 | 0.0 | 1.6 | 0.00 | 0.00 | 0.00 | 89 | 1009.1 |
| 20260905095250 | 25 | 240 | 0.0 | 3.2 | 0.00 | 0.00 | 0.00 | 89 | 1009.1 |
| 20260905094522 | 25 | 240 | 1.6 | 3.2 | 0.00 | 0.00 | 0.00 | 89 | 1009.1 |
| 20260905094015 | 25 | 240 | 1.6 | 3.2 | 0.00 | 0.00 | 0.00 | 89 | 1009.1 |
| 20260905093729 | 25 | 240 | 1.6 | 3.2 | 0.00 | 0.00 | 0.00 | 89 | 1009.1 |